WAT251 KPHX-KIND

Flight info

Callsign WAT251
Flight time N/A
Altitude 37000
Route FORPE1 ABQ DCT FTI DCT KYLER DCT KK48C DCT FRACA DCT KK54G DCT BAYLI DCT USIRE KOLTS2
Aircraft B739/M-SDE2E3FGHIRWXY/LB1

Departure

Time 2026-05-06 17:49
Airport Phoenix Sky Harbor International Airport (KPHX)

Arrival

Time N/A
Airport Indianapolis International Airport (KIND)
Time Latitude Longitude Altitude Speed Heading
2026-05-06 17:13 33.43763 -112.00246 1133 ft 0 kts 99°
2026-05-06 17:39 33.43764 -112.00255 1133 ft 2 kts 99°
2026-05-06 17:39 33.43766 -112.00273 1133 ft 2 kts 99°
2026-05-06 17:40 33.43768 -112.00285 1133 ft 0 kts 99°
2026-05-06 17:40 33.43767 -112.00298 1133 ft 1 kts 52°
2026-05-06 17:40 33.43758 -112.00305 1133 ft 0 kts
2026-05-06 17:40 33.43752 -112.00304 1133 ft 1 kts 358°
2026-05-06 17:41 33.43750 -112.00304 1133 ft 0 kts 359°
2026-05-06 17:42 33.43751 -112.00304 1133 ft 0 kts 359°
2026-05-06 17:42 33.43766 -112.00304 1133 ft 5 kts 359°
2026-05-06 17:43 33.43823 -112.00305 1133 ft 9 kts 359°
2026-05-06 17:43 33.43883 -112.00313 1133 ft 8 kts 329°
2026-05-06 17:43 33.43874 -112.00375 1133 ft 12 kts 199°
2026-05-06 17:43 33.43786 -112.00382 1133 ft 12 kts 179°
2026-05-06 17:44 33.43702 -112.00381 1133 ft 11 kts 180°
2026-05-06 17:44 33.43620 -112.00381 1132 ft 12 kts 180°
2026-05-06 17:44 33.43561 -112.00381 1131 ft 13 kts 180°
2026-05-06 17:44 33.43435 -112.00382 1130 ft 13 kts 180°
2026-05-06 17:45 33.43344 -112.00384 1130 ft 12 kts 181°
2026-05-06 17:45 33.43263 -112.00386 1129 ft 11 kts 181°
2026-05-06 17:45 33.43214 -112.00333 1128 ft 10 kts 91°
2026-05-06 17:45 33.43214 -112.00237 1128 ft 14 kts 89°
2026-05-06 17:46 33.43216 -112.00115 1128 ft 17 kts 89°
2026-05-06 17:46 33.43215 -111.99957 1128 ft 18 kts 90°
2026-05-06 17:46 33.43217 -111.99802 1127 ft 18 kts 91°
2026-05-06 17:46 33.43216 -111.99650 1127 ft 18 kts 90°
2026-05-06 17:47 33.43216 -111.99502 1127 ft 17 kts 91°
2026-05-06 17:47 33.43210 -111.99367 1129 ft 14 kts 111°
2026-05-06 17:47 33.43146 -111.99333 1130 ft 10 kts 197°
2026-05-06 17:47 33.43103 -111.99383 1129 ft 8 kts 269°
2026-05-06 17:48 33.43104 -111.99500 1128 ft 32 kts 271°
2026-05-06 17:48 33.43105 -112.00076 1127 ft 104 kts 270°
2026-05-06 17:48 33.43104 -112.01180 1129 ft 162 kts 270°
2026-05-06 17:48 33.43102 -112.02653 1583 ft 180 kts 269°
2026-05-06 17:49 33.43079 -112.04169 2220 ft 193 kts 270°
2026-05-06 17:49 33.43099 -112.05802 2917 ft 200 kts 272°
2026-05-06 17:49 33.43159 -112.07546 3394 ft 217 kts 273°
2026-05-06 17:49 33.43227 -112.09402 3858 ft 235 kts 273°
2026-05-06 17:50 33.43330 -112.11437 4300 ft 254 kts 275°
2026-05-06 17:50 33.43401 -112.12800 5085 ft 243 kts 274°
2026-05-06 17:50 33.43545 -112.15502 5986 ft 253 kts 278°
2026-05-06 17:50 33.44138 -112.17457 6735 ft 253 kts 307°
2026-05-06 17:51 33.45462 -112.18842 7446 ft 255 kts 334°
2026-05-06 17:51 33.47100 -112.19518 8217 ft 254 kts 348°
2026-05-06 17:51 33.48850 -112.19807 9023 ft 253 kts 359°
2026-05-06 17:51 33.50612 -112.19765 9700 ft 257 kts
2026-05-06 17:52 33.52364 -112.19642 10507 ft 255 kts
2026-05-06 17:52 33.54160 -112.19498 11022 ft 266 kts
2026-05-06 17:52 33.56006 -112.19080 11610 ft 275 kts 14°
2026-05-06 17:52 33.57928 -112.18392 11912 ft 295 kts 17°
2026-05-06 17:53 33.59944 -112.17623 12350 ft 310 kts 20°
2026-05-06 17:53 33.61899 -112.16444 12757 ft 325 kts 33°
2026-05-06 17:53 33.63694 -112.14667 13190 ft 340 kts 43°
2026-05-06 17:53 33.65405 -112.12540 13623 ft 355 kts 47°
2026-05-06 17:54 33.66544 -112.11031 14094 ft 359 kts 47°
2026-05-06 17:54 33.68839 -112.07970 15101 ft 364 kts 47°
2026-05-06 17:54 33.70628 -112.05621 15940 ft 366 kts 47°
2026-05-06 17:54 33.71810 -112.04033 16449 ft 369 kts 50°
2026-05-06 17:55 33.73675 -112.00410 17379 ft 376 kts 67°
2026-05-06 17:55 33.74352 -111.97258 18112 ft 381 kts 81°
2026-05-06 17:55 33.74481 -111.93976 18800 ft 386 kts 89°
2026-05-06 17:55 33.74323 -111.90633 19451 ft 392 kts 93°
2026-05-06 17:56 33.74038 -111.87154 20080 ft 397 kts 94°
2026-05-06 17:56 33.73712 -111.83630 20694 ft 403 kts 94°
2026-05-06 17:56 33.73379 -111.80061 21334 ft 407 kts 94°
2026-05-06 17:56 33.73054 -111.76512 21910 ft 412 kts 94°
2026-05-06 17:57 33.72730 -111.72888 22478 ft 417 kts 93°
2026-05-06 17:57 33.72408 -111.69219 23061 ft 420 kts 93°
2026-05-06 17:57 33.72089 -111.65535 23719 ft 422 kts 93°
2026-05-06 17:57 33.71767 -111.61794 24296 ft 426 kts 92°
2026-05-06 17:58 33.71439 -111.57979 24817 ft 430 kts 92°
2026-05-06 17:58 33.71106 -111.54098 25347 ft 434 kts 92°
2026-05-06 17:58 33.70778 -111.50304 25995 ft 434 kts 92°
2026-05-06 17:58 33.70425 -111.46210 26419 ft 440 kts 92°
2026-05-06 17:59 33.70159 -111.43139 26853 ft 442 kts 92°
2026-05-06 17:59 33.69838 -111.39421 27077 ft 451 kts 92°
2026-05-06 17:59 33.69513 -111.35674 27521 ft 454 kts 92°
2026-05-06 17:59 33.69270 -111.31875 27961 ft 455 kts 89°
2026-05-06 18:00 33.69318 -111.28118 28307 ft 456 kts 81°
2026-05-06 18:00 33.69634 -111.25600 28724 ft 451 kts 74°
2026-05-06 18:00 33.70472 -111.22065 29461 ft 441 kts 67°
2026-05-06 18:00 33.71918 -111.17565 30527 ft 429 kts 64°
2026-05-06 18:01 33.73101 -111.14230 30667 ft 436 kts 63°
2026-05-06 18:01 33.74338 -111.10864 30768 ft 445 kts 63°
2026-05-06 18:01 33.75586 -111.07480 31043 ft 449 kts 64°
2026-05-06 18:01 33.76846 -111.04032 31513 ft 448 kts 64°
2026-05-06 18:02 33.78084 -111.00620 31780 ft 452 kts 65°
2026-05-06 18:02 33.79339 -110.97135 31983 ft 457 kts 65°
2026-05-06 18:02 33.80605 -110.93600 32163 ft 463 kts 65°
2026-05-06 18:02 33.81858 -110.90082 32428 ft 466 kts 65°
2026-05-06 18:03 33.83136 -110.86480 32708 ft 468 kts 66°
2026-05-06 18:03 33.84407 -110.82894 33004 ft 470 kts 66°
2026-05-06 18:03 33.85260 -110.80482 33244 ft 470 kts 66°
2026-05-06 18:03 33.86968 -110.75642 33588 ft 474 kts 67°
2026-05-06 18:04 33.88265 -110.71960 33692 ft 481 kts 67°
2026-05-06 18:04 33.89570 -110.68250 33860 ft 486 kts 67°
2026-05-06 18:04 33.90449 -110.65751 34048 ft 486 kts 67°
2026-05-06 18:04 33.91766 -110.62003 34474 ft 483 kts 67°
2026-05-06 18:05 33.93499 -110.57069 34949 ft 481 kts 67°
2026-05-06 18:05 33.94377 -110.54562 35168 ft 481 kts 67°
2026-05-06 18:05 33.96116 -110.49597 35521 ft 482 kts 67°
2026-05-06 18:05 33.97430 -110.45847 35778 ft 484 kts 67°
2026-05-06 18:06 33.98306 -110.43343 35905 ft 487 kts 66°
2026-05-06 18:06 33.99642 -110.39522 36096 ft 491 kts 67°
2026-05-06 18:06 34.01402 -110.34470 36433 ft 493 kts 68°
2026-05-06 18:06 34.02294 -110.31902 36650 ft 493 kts 68°
2026-05-06 18:07 34.03623 -110.28072 37004 ft 493 kts 68°
2026-05-06 18:07 34.04954 -110.24239 37182 ft 494 kts 68°
2026-05-06 18:07 34.08063 -110.15279 37181 ft 492 kts 68°
2026-05-06 18:08 34.10252 -110.08941 37174 ft 493 kts 68°
2026-05-06 18:08 34.12885 -110.01300 37181 ft 494 kts 68°
2026-05-06 18:09 34.15980 -109.92300 37196 ft 499 kts 67°
2026-05-06 18:09 34.18637 -109.84556 37196 ft 495 kts 68°
2026-05-06 18:10 34.20818 -109.78175 37191 ft 498 kts 68°
2026-05-06 18:10 34.23906 -109.69132 37196 ft 498 kts 68°
2026-05-06 18:11 34.26093 -109.62718 37191 ft 497 kts 68°
2026-05-06 18:11 34.28717 -109.55012 37196 ft 500 kts 67°
2026-05-06 18:12 34.31801 -109.45925 37204 ft 500 kts 68°
2026-05-06 18:12 34.33984 -109.39483 37191 ft 500 kts 68°
2026-05-06 18:13 34.36628 -109.31635 37213 ft 505 kts 68°
2026-05-06 18:13 34.39687 -109.22530 37180 ft 500 kts 68°
2026-05-06 18:14 34.42299 -109.14739 37199 ft 503 kts 68°
2026-05-06 18:14 34.44348 -109.08167 37198 ft 502 kts 71°
2026-05-06 18:15 34.46909 -108.98815 37196 ft 504 kts 73°
2026-05-06 18:15 34.49051 -108.90749 37208 ft 506 kts 72°
2026-05-06 18:16 34.51201 -108.82658 37198 ft 503 kts 72°
2026-05-06 18:16 34.53393 -108.74598 37189 ft 506 kts 72°
2026-05-06 18:17 34.55606 -108.66512 37177 ft 504 kts 72°
2026-05-06 18:17 34.57446 -108.59758 37192 ft 510 kts 72°
2026-05-06 18:18 34.60039 -108.50221 37191 ft 511 kts 71°
2026-05-06 18:18 34.61871 -108.43460 37176 ft 507 kts 72°
2026-05-06 18:19 34.64076 -108.35301 37187 ft 511 kts 72°
2026-05-06 18:19 34.66634 -108.25794 37183 ft 510 kts 73°
2026-05-06 18:20 34.68837 -108.17594 37182 ft 514 kts 73°
2026-05-06 18:20 34.70667 -108.10745 37183 ft 513 kts 73°
2026-05-06 18:21 34.72860 -108.02548 37175 ft 512 kts 73°
2026-05-06 18:21 34.75058 -107.94350 37173 ft 512 kts 73°
2026-05-06 18:22 34.77622 -107.84748 37173 ft 514 kts 73°
2026-05-06 18:22 34.79443 -107.77831 37158 ft 515 kts 72°
2026-05-06 18:23 34.81604 -107.69598 37151 ft 512 kts 72°
2026-05-06 18:23 34.84145 -107.59924 37140 ft 515 kts 72°
2026-05-06 18:24 34.85950 -107.53025 37136 ft 517 kts 73°
2026-05-06 18:24 34.88128 -107.44692 37122 ft 517 kts 72°
2026-05-06 18:25 34.90291 -107.36391 37114 ft 517 kts 73°
2026-05-06 18:25 34.92801 -107.26735 37110 ft 515 kts 73°
2026-05-06 18:26 34.94604 -107.19746 37105 ft 520 kts 74°
2026-05-06 18:26 34.96758 -107.11395 37087 ft 517 kts 74°
2026-05-06 18:27 34.97843 -107.07214 37213 ft 516 kts 74°
2026-05-06 18:27 34.98913 -107.03086 37091 ft 518 kts 73°
2026-05-06 18:27 35.01430 -106.93302 37067 ft 521 kts 73°
2026-05-06 18:28 35.03210 -106.86317 37058 ft 518 kts 73°
2026-05-06 18:28 35.05609 -106.78078 37056 ft 520 kts 67°
2026-05-06 18:29 35.08540 -106.69982 37059 ft 520 kts 64°
2026-05-06 18:29 35.11612 -106.61993 37066 ft 522 kts 63°
2026-05-06 18:30 35.14683 -106.53975 37076 ft 521 kts 64°
2026-05-06 18:30 35.17709 -106.45937 37085 ft 522 kts 65°
2026-05-06 18:31 35.20704 -106.37886 37092 ft 523 kts 65°
2026-05-06 18:31 35.24187 -106.28449 37093 ft 526 kts 66°
2026-05-06 18:32 35.26682 -106.21672 37090 ft 525 kts 65°
2026-05-06 18:32 35.29678 -106.13527 37087 ft 524 kts 65°
2026-05-06 18:33 35.32650 -106.05431 37083 ft 526 kts 65°
2026-05-06 18:33 35.36110 -105.95956 37081 ft 524 kts 65°
2026-05-06 18:34 35.38596 -105.89145 37089 ft 525 kts 65°
2026-05-06 18:34 35.42051 -105.79612 37085 ft 527 kts 65°
2026-05-06 18:35 35.44517 -105.72805 37086 ft 525 kts 65°
2026-05-06 18:35 35.47947 -105.63322 37085 ft 528 kts 66°
2026-05-06 18:36 35.50442 -105.56417 37082 ft 531 kts 65°
2026-05-06 18:36 35.53392 -105.48214 37077 ft 527 kts 65°
2026-05-06 18:37 35.56397 -105.39833 37074 ft 525 kts 64°
2026-05-06 18:37 35.59376 -105.31568 37069 ft 530 kts 65°
2026-05-06 18:38 35.62318 -105.23362 37077 ft 527 kts 65°
2026-05-06 18:38 35.65190 -105.15066 37097 ft 530 kts 66°
2026-05-06 18:39 35.68085 -105.06798 37090 ft 528 kts 65°
2026-05-06 18:40 35.73065 -104.93046 37069 ft 530 kts 65°
2026-05-06 18:40 35.75542 -104.86185 37068 ft 529 kts 65°
2026-05-06 18:41 35.78486 -104.77917 37074 ft 527 kts 65°
2026-05-06 18:41 35.81408 -104.69668 37070 ft 529 kts 65°
2026-05-06 18:42 35.84346 -104.61358 37057 ft 529 kts 66°
2026-05-06 18:42 35.87240 -104.53095 37064 ft 527 kts 65°
2026-05-06 18:43 35.90152 -104.44790 37060 ft 529 kts 65°
2026-05-06 18:43 35.93043 -104.36523 37057 ft 528 kts 65°
2026-05-06 18:44 35.95937 -104.28222 37056 ft 528 kts 67°
2026-05-06 18:44 35.98843 -104.19875 37050 ft 531 kts 66°
2026-05-06 18:45 36.01749 -104.11540 37048 ft 528 kts 67°
2026-05-06 18:45 36.04625 -104.03257 37052 ft 530 kts 67°
2026-05-06 18:46 36.07506 -103.94908 37050 ft 530 kts 67°
2026-05-06 18:46 36.10397 -103.86523 37060 ft 532 kts 66°
2026-05-06 18:47 36.13303 -103.78086 37061 ft 533 kts 66°
2026-05-06 18:47 36.13787 -103.76676 37061 ft 533 kts 66°